PDT,Max TemperatureF,Mean TemperatureF,Min TemperatureF,Max Dew PointF,MeanDew PointF,Min DewpointF,Max Humidity, Mean Humidity, Min Humidity, Max Sea Level PressureIn, Mean Sea Level PressureIn, Min Sea Level PressureIn, Max VisibilityMiles, Mean VisibilityMiles, Min VisibilityMiles, Max Wind SpeedMPH, Mean Wind SpeedMPH, Max Gust SpeedMPH,PrecipitationIn, CloudCover, Events, WindDirDegrees
2013-5-1,56,41,27,28,24,20,90,55,25,30.62,30.51,30.30,10,10,10,9,5,,0.00,0,Rain,141
2013-5-2,66,49,33,33,27,22,70,44,22,30.61,30.47,30.26,10,10,10,8,4,,0.00,1,,120
2013-5-3,67,58,49,40,36,31,61,45,32,30.27,30.23,30.18,10,7,2,15,7,,0.00,2,,31
2013-5-4,69,57,45,42,35,28,74,45,23,30.28,30.21,30.09,10,7,3,21,11,31,0.00,3,Rain,19
2013-5-5,75,60,45,35,33,30,59,34,21,30.08,29.98,29.88,10,10,10,17,12,23,0.00,0,,23
2013-5-6,79,63,47,39,33,28,55,33,15,29.90,29.83,29.75,10,10,10,9,5,,0.00,0,,45
2013-5-7,82,64,46,43,38,32,65,37,20,29.91,29.84,29.78,10,10,10,10,4,,0.00,0,,26
2013-5-8,82,66,52,50,44,38,60,41,27,30.01,29.96,29.89,10,10,10,10,6,,0.00,0,Rain,169
2013-5-9,83,68,54,50,42,36,73,41,19,30.08,30.04,29.99,10,10,10,8,6,,0.00,0,,170
2013-5-10,86,68,51,48,42,36,68,38,17,30.17,30.12,30.07,10,10,10,14,6,,0.00,0,,153
2013-5-11,84,70,57,50,44,39,59,42,26,30.12,30.07,29.99,10,10,10,15,5,,0.00,1,,161
2013-5-12,77,66,56,52,49,44,72,54,41,30.03,30.00,29.96,10,10,10,22,8,25,0.00,3,,180
2013-5-13,61,53,42,52,48,34,94,80,63,30.08,29.98,29.93,10,10,9,22,11,32,0.21,6,Rain,183
2013-5-14,60,48,37,35,31,24,81,55,26,30.17,30.12,30.06,10,10,10,16,10,17,0.00,1,,196
2013-5-15,63,50,37,42,35,29,88,57,33,30.09,30.03,29.94,10,10,10,9,4,,0.00,4,Rain,86
2013-5-16,62,54,48,46,44,42,91,74,49,29.96,29.93,29.88,10,10,9,10,4,,0.01,7,Rain,137
2013-5-17,66,53,41,48,44,41,100,78,42,29.95,29.90,29.87,10,10,10,17,5,,0.00,2,Rain,277
2013-5-18,59,52,45,47,42,38,87,72,46,30.14,30.04,29.95,10,10,10,13,9,,0.00,8,Rain,165
2013-5-19,65,55,46,50,44,40,92,67,48,30.27,30.21,30.13,10,9,2,13,7,,0.00,7,Rain,170
2013-5-20,69,54,39,45,42,39,100,65,37,30.27,30.15,29.88,10,10,10,8,3,,0.00,0,,104
2013-5-21,72,54,37,48,42,37,100,85,39,29.85,29.75,29.62,10,7,0,33,11,43,0.18,5,Fog-Rain,150
2013-5-22,49,42,35,41,37,33,100,94,58,30.04,29.85,29.78,10,5,0,17,9,24,0.06,7,Fog-Rain-Snow,161
2013-5-23,57,44,32,41,35,32,100,88,43,30.05,30.00,29.96,10,4,0,9,5,,0.00,3,Fog,29
2013-5-24,54,44,35,45,40,33,100,80,58,30.04,29.98,29.93,10,10,3,16,8,21,0.03,6,Rain,177
2013-5-25,61,49,37,43,39,32,100,76,40,30.05,30.01,29.97,10,10,10,12,4,,0.00,4,,140
2013-5-26,67,54,40,46,41,38,94,63,35,29.99,29.95,29.91,10,10,10,14,7,,0.00,3,,11
2013-5-27,64,56,48,50,46,39,100,74,42,29.95,29.84,29.79,10,10,3,16,8,22,0.08,7,Rain,164
2013-5-28,59,52,46,50,48,44,100,91,63,29.85,29.81,29.78,10,10,2,16,5,22,0.01,8,Rain,195
2013-5-29,57,49,41,50,46,39,100,85,63,29.89,29.77,29.69,10,9,2,23,9,26,0.04,7,Rain,179
2013-5-30,62,51,40,46,41,34,100,72,36,30.13,29.99,29.87,10,10,10,18,12,26,0.01,5,Rain,187
2013-5-31,66,52,39,41,36,32,93,62,29,30.27,30.22,30.12,10,10,10,15,7,22,0.00,1,,184